Lexington, NC

11:08 PM EDT on September 30, 2016 (GMT -0400)
Davidson County

Weather History for KEXX - July, 2013

Change the Weather History Date:

Sunday, July 14, 2013

  Actual Average (KINT) Record (KINT)
Temperature  
Mean Temperature 78 °F -  
Max Temperature 85 °F 85 °F 96 °F (1992)
Min Temperature 70 °F 67 °F 54 °F (1992)
Cooling Degree Days 12    
Growing Degree Days 28 (Base 50)    
Moisture  
Dew Point 71 °F    
Average Humidity 88    
Maximum Humidity 100    
Minimum Humidity 59    
Precipitation  
Precipitation 0.09 in - - ()
Sea Level Pressure  
Sea Level Pressure 30.26 in    
Wind  
Wind Speed 6 mph (East)    
Max Wind Speed 12 mph    
Max Gust Speed 16 mph    
Visibility 9 miles    
Events Rain    
Averages and records for this station are not official NWS values.
T = Trace of Precipitation, MM = Missing Value Source: NWS Daily Summary

Daily Weather History Graph

Daily Weather History Graph

Search for Another Location

Airport or City:

Trip Planner

Search our weather history database for the weather conditions in past years. The results will help you decide how hot, cold, wet, or windy it might be!

Date:

Astronomy

Jul. 14, 2013 Rise Set
Actual Time 6:16 AM EDT 8:37 PM EDT
Civil Twilight 5:46 AM EDT 9:07 PM EDT
Nautical Twilight 5:10 AM EDT 9:43 PM EDT
Astronomical Twilight 4:30 AM EDT 10:22 PM EDT
Moon 12:17 PM EDT (7/14) No Moon Set
Length of Visible Light 15h 20m
Length of Day
14h 21m
Waxing Crescent, 35% of the Moon is Illuminated
Jul 14
Waxing Crescent
Jul 15
First Quarter
Jul 22
Full
Jul 29
Last Quarter
Aug 6
New

Hourly Weather History & Observations

Time (EDT) Temp. Heat Index Dew Point Humidity Pressure Visibility Wind Dir Wind Speed Gust Speed Precip Events Conditions
12:15 AM 72.5 °F - 72.5 °F 100% 30.15 in 7.0 mi ESE 5.8 mph - N/A   Overcast
12:35 AM 72.5 °F - 72.5 °F 100% 30.15 in 10.0 mi East 5.8 mph - N/A   Overcast
12:55 AM 72.5 °F - 72.5 °F 100% 30.16 in 10.0 mi East 6.9 mph - N/A   Mostly Cloudy
1:15 AM 72.5 °F - 72.5 °F 100% 30.16 in 10.0 mi East 9.2 mph - N/A   Overcast
1:35 AM 72.5 °F - 72.5 °F 100% 30.18 in 10.0 mi ESE 4.6 mph - N/A   Overcast
1:55 AM 72.5 °F - 72.5 °F 100% 30.18 in 10.0 mi ESE 4.6 mph - N/A   Overcast
2:15 AM 72.0 °F - 72.0 °F 100% 30.18 in 4.0 mi ESE 4.6 mph - 0.01 in Rain Rain
2:35 AM 72.0 °F - 72.0 °F 100% 30.17 in 10.0 mi East 6.9 mph - 0.02 in   Overcast
2:55 AM 71.8 °F - 71.8 °F 100% 30.17 in 7.0 mi ESE 6.9 mph - 0.02 in   Mostly Cloudy
3:15 AM 71.8 °F - 71.8 °F 100% 30.18 in 7.0 mi East 3.5 mph - N/A   Mostly Cloudy
3:35 AM 71.6 °F - 71.6 °F 100% 30.18 in 10.0 mi East 5.8 mph - 0.01 in   Mostly Cloudy
3:55 AM 71.6 °F - 71.6 °F 100% 30.18 in 7.0 mi East 8.1 mph - 0.01 in Rain Light Rain
4:15 AM 71.8 °F - 71.8 °F 100% 30.19 in 10.0 mi East 6.9 mph - N/A   Mostly Cloudy
4:35 AM 71.6 °F - 71.6 °F 100% 30.19 in 10.0 mi East 5.8 mph - N/A   Mostly Cloudy
4:55 AM 71.6 °F - 71.6 °F 100% 30.20 in 4.0 mi East 4.6 mph - N/A Rain Heavy Rain
5:15 AM 71.1 °F - 71.1 °F 100% 30.21 in 5.0 mi East 3.5 mph - 0.04 in Rain Heavy Rain
5:35 AM 71.2 °F - 71.2 °F 100% 30.21 in 10.0 mi ESE 5.8 mph - 0.04 in   Overcast
5:55 AM 71.2 °F - 71.2 °F 100% 30.22 in 10.0 mi ESE 4.6 mph - 0.04 in   Overcast
6:15 AM 71.1 °F - 71.1 °F 100% 30.23 in 10.0 mi ESE 4.6 mph - N/A   Mostly Cloudy
6:35 AM 71.1 °F - 71.1 °F 100% 30.24 in 7.0 mi ESE 5.8 mph - 0.01 in Rain Rain
6:55 AM 71.2 °F - 71.2 °F 100% 30.25 in 7.0 mi ESE 6.9 mph - 0.01 in   Mostly Cloudy
7:15 AM 71.6 °F - 71.6 °F 100% 30.25 in 7.0 mi East 5.8 mph - N/A   Scattered Clouds
7:35 AM 72.0 °F - 72.0 °F 100% 30.26 in 7.0 mi East 6.9 mph - N/A   Scattered Clouds
7:55 AM 72.5 °F - 72.5 °F 100% 30.27 in 7.0 mi ESE 5.8 mph - N/A   Mostly Cloudy
8:15 AM 72.7 °F - 72.7 °F 100% 30.27 in 7.0 mi East 3.5 mph - N/A   Mostly Cloudy
8:35 AM 73.4 °F - 73.4 °F 100% 30.28 in 7.0 mi ESE 5.8 mph - N/A   Overcast
8:55 AM 73.6 °F - 73.6 °F 100% 30.29 in 10.0 mi ESE 6.9 mph - N/A   Mostly Cloudy
9:15 AM 74.7 °F - 73.9 °F 98% 30.29 in 10.0 mi East 4.6 mph - N/A   Scattered Clouds
9:35 AM 75.2 °F - 72.5 °F 91% 30.29 in 10.0 mi East 6.9 mph - N/A   Scattered Clouds
9:55 AM 76.5 °F - 72.1 °F 86% 30.30 in 10.0 mi ESE 8.1 mph - N/A   Scattered Clouds
10:15 AM 77.0 °F - 72.0 °F 84% 30.30 in 10.0 mi ESE 8.1 mph - N/A   Scattered Clouds
10:35 AM 77.7 °F - 71.8 °F 82% 30.31 in 10.0 mi ESE 6.9 mph - N/A   Scattered Clouds
10:55 AM 79.2 °F - 70.7 °F 75% 30.31 in 10.0 mi East 9.2 mph - N/A   Scattered Clouds
11:15 AM 79.3 °F - 70.7 °F 75% 30.31 in 10.0 mi East 8.1 mph - N/A   Scattered Clouds
11:35 AM 80.6 °F 84.4 °F 71.1 °F 73% 30.31 in 10.0 mi East 9.2 mph - N/A   Clear
11:55 AM 81.3 °F 85.4 °F 71.1 °F 71% 30.31 in 10.0 mi ESE 8.1 mph - N/A   Clear
12:15 PM 82.2 °F 86.4 °F 70.5 °F 68% 30.30 in 10.0 mi ESE 6.9 mph - N/A   Clear
12:35 PM 81.9 °F 85.6 °F 70.0 °F 67% 30.31 in 10.0 mi East 8.1 mph - N/A   Scattered Clouds
12:55 PM 81.9 °F 85.4 °F 69.6 °F 66% 30.30 in 10.0 mi East 8.1 mph - N/A   Scattered Clouds
1:15 PM 83.5 °F 88.2 °F 70.9 °F 66% 30.30 in 10.0 mi ESE 6.9 mph - N/A   Clear
1:35 PM 82.9 °F 86.7 °F 69.6 °F 64% 30.30 in 10.0 mi East 8.1 mph - N/A   Clear
1:55 PM 81.7 °F 86.7 °F 72.7 °F 74% 30.29 in 10.0 mi NE 4.6 mph - N/A   Clear
2:15 PM 83.1 °F 88.4 °F 72.1 °F 69% 30.28 in 10.0 mi ENE 6.9 mph - N/A   Scattered Clouds
2:35 PM 84.0 °F 89.6 °F 72.1 °F 67% 30.28 in 10.0 mi East 5.8 mph - N/A   Scattered Clouds
2:55 PM 84.4 °F 89.0 °F 70.7 °F 63% 30.28 in 10.0 mi East 11.5 mph 16.1 mph N/A   Scattered Clouds
3:15 PM 80.1 °F 83.6 °F 71.1 °F 74% 30.28 in 10.0 mi South 6.9 mph - N/A   Clear
3:35 PM 78.8 °F - 70.7 °F 76% 30.28 in 10.0 mi ESE 4.6 mph - N/A   Clear
3:55 PM 81.7 °F 86.5 °F 72.1 °F 73% 30.27 in 10.0 mi East 8.1 mph - N/A   Clear
4:15 PM 84.0 °F 89.0 °F 71.1 °F 65% 30.25 in 10.0 mi East 8.1 mph - N/A   Clear
4:35 PM 84.4 °F 89.4 °F 70.9 °F 64% 30.25 in 10.0 mi East 6.9 mph - N/A   Clear
4:55 PM 84.6 °F 89.1 °F 70.2 °F 62% 30.25 in 10.0 mi ENE 5.8 mph - N/A   Clear
5:15 PM 85.3 °F 89.4 °F 69.3 °F 59% 30.25 in 10.0 mi East 9.2 mph - N/A   Clear
5:35 PM 75.2 °F - 71.4 °F 88% 30.26 in 5.0 mi East 5.8 mph 16.1 mph 0.01 in Rain Rain
5:55 PM 75.2 °F - 71.8 °F 89% 30.27 in 10.0 mi East 4.6 mph - 0.01 in   Scattered Clouds
6:15 PM 75.2 °F - 72.0 °F 90% 30.27 in 10.0 mi Calm Calm - N/A   Clear
6:35 PM 78.4 °F - 72.0 °F 80% 30.27 in 10.0 mi East 4.6 mph - N/A   Clear
6:55 PM 77.7 °F - 70.5 °F 78% 30.27 in 10.0 mi ESE 3.5 mph - N/A   Clear
7:15 PM 78.1 °F - 71.1 °F 79% 30.27 in 10.0 mi East 3.5 mph - N/A   Clear
7:35 PM 78.3 °F - 70.9 °F 78% 30.27 in 10.0 mi East 4.6 mph - N/A   Clear
7:55 PM 77.4 °F - 70.3 °F 79% 30.27 in 10.0 mi East 4.6 mph - N/A   Clear
8:15 PM 76.5 °F - 70.7 °F 82% 30.27 in 10.0 mi Calm Calm - N/A   Clear
8:35 PM 75.2 °F - 70.9 °F 86% 30.28 in 10.0 mi Calm Calm - N/A   Clear
8:55 PM 73.0 °F - 73.0 °F 100% 30.28 in 10.0 mi Calm Calm - N/A   Clear
9:15 PM 73.6 °F - 73.2 °F 99% 30.28 in 10.0 mi Calm Calm - N/A   Clear
9:35 PM 73.8 °F - 70.7 °F 90% 30.28 in 10.0 mi East 3.5 mph - N/A   Clear
9:55 PM 72.9 °F - 69.8 °F 90% 30.29 in 10.0 mi Calm Calm - N/A   Clear
10:15 PM 72.3 °F - 69.3 °F 90% 30.30 in 10.0 mi Calm Calm - N/A   Clear
10:35 PM 70.7 °F - 70.7 °F 100% 30.31 in 7.0 mi Calm Calm - N/A   Clear
10:55 PM 70.3 °F - 70.3 °F 100% 30.31 in 10.0 mi Calm Calm - N/A   Clear
11:15 PM 70.2 °F - 70.2 °F 100% 30.31 in 10.0 mi Calm Calm - N/A   Clear
11:35 PM 70.0 °F - 70.0 °F 100% 30.31 in 10.0 mi Calm Calm - N/A   Clear
11:55 PM 70.2 °F - 70.2 °F 100% 30.31 in 10.0 mi Calm Calm - N/A   Clear